Location: Unspecified
(0.0000°N, 0.0000°E)
Time: 14:26:09
(UTC+00:00)

Quakesat - Pass Details

Date: 04 August 2021
Orbit: 811 x 823 km, 98.7° (Epoch: 17 September)

Event Time Altitude Azimuth Distance (km) Brightness Sun altitude
Rises 19:02:58 0° 199° (SSW) 3,330 ? -13.6°
Reaches altitude 10° 19:06:10 10° 219° (SW) 2,397 ? -14.3°
Maximum altitude 19:09:23 16° 257° (WSW) 1,984 ? -15.1°
Drops below altitude 10° 19:12:36 10° 295° (WNW) 2,395 ? -15.9°
Sets 19:15:49 0° 315° (NW) 3,325 ? -16.6°
